MST,Max TemperatureF,Mean TemperatureF,Min TemperatureF,Max Dew PointF,MeanDew PointF,Min DewpointF,Max Humidity, Mean Humidity, Min Humidity, Max Sea Level PressureIn, Mean Sea Level PressureIn, Min Sea Level PressureIn, Max VisibilityMiles, Mean VisibilityMiles, Min VisibilityMiles, Max Wind SpeedMPH, Mean Wind SpeedMPH, Max Gust SpeedMPH,PrecipitationIn, CloudCover, Events, WindDirDegrees
2013-1-1,29,13,-4,24,5,-9,92,81,69,30.22,30.10,29.99,10,5,0,22,8,28,0.06,7,Fog-Snow,306
2013-1-2,25,13,1,18,12,-2,92,83,73,30.43,30.28,30.09,10,10,10,15,10,18,T,5,,287
2013-1-3,19,9,-2,12,2,-6,95,83,70,30.36,30.19,30.06,10,6,1,12,4,12,0.00,1,,86
2013-1-4,26,12,-3,19,5,-5,91,76,61,30.20,30.13,30.00,10,10,10,20,4,24,0.00,0,,321
2013-1-5,22,13,4,13,9,6,92,80,68,30.29,30.26,30.12,10,10,8,15,7,18,0.00,0,,318
2013-1-6,34,22,9,21,14,7,92,78,63,30.16,29.94,29.85,10,10,10,21,9,26,0.00,1,,121
2013-1-7,33,24,15,31,17,12,88,77,66,29.95,29.82,29.55,10,10,4,17,8,23,T,2,Snow,234
2013-1-8,36,25,14,31,23,9,89,74,58,30.06,29.84,29.57,10,9,1,26,12,33,T,4,Snow,269
2013-1-9,45,27,9,30,23,7,85,69,53,30.05,29.86,29.68,10,10,10,16,12,22,0.00,2,,127
2013-1-10,34,24,13,29,16,9,92,83,73,29.85,29.70,29.56,10,6,0,24,11,29,0.05,6,Fog-Snow,352
2013-1-11,14,8,1,9,3,-7,88,79,69,30.31,29.92,29.72,10,2,0,35,21,41,0.30,8,Fog-Snow,8
2013-1-12,6,-4,-15,-6,-11,-18,83,73,62,30.35,30.32,30.12,10,10,10,15,6,17,0.00,1,,313
2013-1-13,7,-4,-15,0,-5,-18,95,82,69,30.38,30.30,30.13,10,9,5,12,4,13,T,7,Snow,302
2013-1-14,13,4,-6,9,1,-8,88,82,76,30.32,30.16,29.86,10,10,6,12,6,13,T,7,Snow,112
2013-1-15,38,26,13,30,25,11,96,80,64,30.00,29.88,29.80,10,7,1,32,17,40,0.01,8,Snow,277
2013-1-16,40,37,33,31,29,28,89,80,70,30.30,30.08,29.80,10,10,10,26,12,35,T,6,,294
2013-1-17,39,33,27,30,27,25,92,76,59,30.33,30.14,29.89,10,10,10,15,6,18,0.00,3,,208
2013-1-18,42,35,27,28,25,22,85,72,59,29.95,29.87,29.81,10,10,10,13,6,17,0.00,2,,276
2013-1-19,31,23,14,24,14,9,85,76,67,30.43,30.28,29.98,10,9,2,26,9,32,T,7,Snow,350
2013-1-20,16,4,-9,12,-2,-14,88,72,56,30.75,30.54,30.25,10,6,1,24,12,30,0.03,6,Snow,336
2013-1-21,6,1,-4,1,-4,-14,87,73,58,30.60,30.35,30.14,10,7,2,16,7,18,0.01,8,Snow,95
2013-1-22,17,12,6,9,6,2,88,79,70,30.33,30.24,30.19,10,10,10,13,6,15,0.00,3,,2
2013-1-23,11,7,3,5,1,-2,83,78,73,30.50,30.38,30.14,10,10,10,29,14,33,0.00,1,,92
2013-1-24,30,19,7,21,13,2,84,76,68,30.15,30.04,29.96,10,10,10,29,11,33,0.00,2,,235
2013-1-25,22,16,10,16,13,7,92,85,77,30.15,30.07,29.98,10,10,8,18,8,21,0.00,0,,117
2013-1-26,38,28,17,28,21,14,92,81,69,29.96,29.88,29.73,10,10,6,21,6,24,T,4,,73
2013-1-27,36,31,25,30,28,22,100,88,75,29.85,29.78,29.70,10,6,0,17,5,22,0.04,6,Fog-Rain-Snow,287
2013-1-28,31,23,14,21,18,11,92,78,63,29.88,29.82,29.72,10,10,10,9,4,10,0.00,0,,205
2013-1-29,19,5,-9,15,-2,-17,92,78,64,30.40,30.10,29.64,10,5,0,32,14,37,0.06,6,Fog-Snow,321
2013-1-30,4,-4,-12,-2,-10,-21,79,71,63,30.41,30.16,29.91,10,8,2,25,8,29,T,6,Snow,331
2013-1-31,7,-7,-22,2,-15,-27,87,70,52,30.55,30.38,30.13,10,10,4,18,7,22,T,5,Snow,90